Regional Weather Roundup
Issued by NWS Newport/Morehead, NC

Current Version | Previous Version | Text Only | Print | Product List | Glossary On
Versions: 1 2 3 4 5 6 7 8 9 10 11 12 13 14 15 16 17 18 19 20 21 22 23 24 25 26 27 28 29 30 31 32 33 34 35 36 37 38 39 40 41 42 43 44 45 46 47 48 49 50
000
ASUS42 KMHX 221422
RWRMHX
WEATHER ROUNDUP FOR EASTERN NORTH CAROLINA
NATIONAL WEATHER SERVICE NEWPORT/MOREHEAD CITY NC
1000 AM EDT TUE JUL 22 2014

NOTE: "FAIR" INDICATES FEW OR NO CLOUDS BELOW 12,000 FEET
WITH NO SIGNIFICANT WEATHER AND/OR OBSTRUCTIONS TO VISIBILITY

NCZ015>017-031-032-045>047-102-103-221500-
NORTH COAST

CITY           SKY/WX    TMP DP  RH WIND       PRES   REMARKS
EDENTON        CLOUDY    79  74  85 E8        30.16R
ELIZABETH CITY PTSUNNY   79  71  76 E10       30.16F
KITTY HAWK     PTSUNNY   78  75  89 E6        30.15S
MANTEO         NOT AVBL

$$

NCZ045>047-081-094-103-104-221500-
CENTRAL COAST

CITY           SKY/WX    TMP DP  RH WIND       PRES   REMARKS
FRISCO         PTSUNNY   80  76  87 SE5       30.15R
SWANQUARTER      N/A     81 N/A N/A SE7       30.12S

$$

NCZ095-097-098-100-101-221500-
SOUTHERN COAST

CITY           SKY/WX    TMP DP  RH WIND       PRES   REMARKS
BEAUFORT       PTSUNNY   81  75  82 SW5       30.14R
CEDAR ISLAND     N/A     79 N/A N/A SE10G16   30.18S
JACKSONVILLE   CLOUDY    78  74  87 N5        30.14R
NEWPORT        NOT AVBL
PINEY ISLAND   CLOUDY    78  76  93 E7        30.14R
WILMINGTON     PTSUNNY   80  75  84 SE6       30.13R


$$

NCZ011>013-027>030-043-044-078>080-089-090>093-098-221500-
COASTAL PLAIN

CITY           SKY/WX    TMP DP  RH WIND       PRES   REMARKS
AHOSKIE        PTSUNNY   76  69  77 NE3       30.17S
CLINTON        PTSUNNY   79  75  87 NE3       30.16R
ELIZABETHTOWN  CLOUDY    75  75 100 CALM      30.15R
GOLDSBORO      CLOUDY    79  77  94 NE6       30.14R
GREENVILLE     CLOUDY    77  73  88 NE6       30.17R
HAVELOCK       PTSUNNY   83  74  74 N7        30.14S
KENANSVILLE    CLOUDY    74  72  95 CALM      30.16S FOG
KINSTON        CLOUDY    79  73  83 NE6       30.16S
NEW BERN       MOSUNNY   81  73  78 CALM      30.15S
RICHLANDS      CLOUDY    75  72  88 NE6       30.15R
ROANOKE RAPIDS NOT AVBL
ROCKY MOUNT    CLOUDY    78  72  81 NE6       30.16F
WASHINGTON     PTSUNNY   77  73  87 E9        30.15S
WHITEVILLE     CLOUDY    76  74  96 NE5       30.14R

$$

AMZ130-135-150-152-154-156-158-170-250-252-270-ANZ085-086-088-633-658-670-221500-
MARINE OBSERVATIONS

STATION/POSITION TIME  TEMP    WIND        PRES    WAVE   SWELL
                       AIR SEA DIR/SP/G            HT/PER HT/PER
                 (UTC) (F)     (DEG/KT/KT) (MB)    (FT/S) (FT/S)
CHESAPEAKE LIGHT NOT AVBL
BUOY 44014       1400   76 77   60/ 10/ 12 1021.3    3/ 8   2/ 8
DUCK             1300   76 74   50/  9/ 10 1020.8
2E DUCK          1400                        N/A     2/ 7
OREGON INLET     1400   77 76   80/  6/  8 1021.0
BUOY 44095       1400      77                N/A     3/ 7
20E OREGON INLET 1300          VRB  8/ 10    N/A
HATTERAS CG      1400   79 80  130/  4/  8 1021.2
DIAMOND BUOY     1400          VRB 12/ 14  1020.5    3/ 8   2/ 8
CAPE LOOKOUT     1400   78     160/  9/  9 1020.6
BEAUFORT LAB     1400   79 80  200/  5/  8 1020.2
30 SE NEW RIVER  1400   75 80  190/  8/ 10 1021.3    3/ 6   3/ 6
5 SE WRIGHTSVILL 1400   75 80   80/  6/  6   N/A
BUOY 41002       1259   81 82  200/ 12/ 14 1021.7    4/ 7   3/ 7
BUOY 41004       1400   79 82  190/ 14/ 21 1018.7    3/ 7   2/ 7

$$



USA.gov is the U.S. government's official web portal to all federal, state and local government web resources and services.